Location: Gaast
(52.9002°N, 5.8891°E)
Time: 11:19:30
(UTC+00:00)

Cosmos 1763 Rocket - Pass Details

Date: 18 November 2025
Orbit: 728 x 774 km, 74.0° (Epoch: 09 December)

Event Time Altitude Azimuth Distance (km) Brightness Sun altitude
Rises 16:44:16 0° 333° (NNW) 3,246 6.9 -9.9°
Reaches altitude 10° 16:46:40 10° 334° (NNW) 2,310 6.1 -10.3°
Maximum altitude 16:51:55 88° 248° (WSW) 764 3.5 -11.0°
Drops below altitude 10° 16:57:04 10° 157° (SSE) 2,263 5.9 -11.8°
Sets 16:59:24 0° 157° (SSE) 3,176 6.6 -12.1°
